When you browse on this site, cookies collect data to enhance your experience and personalize the content and advertising you see.
Visit our Privacy Policy to learn more. By continuing to use the site, you agree to this use of cookies and data.
  • In Deutschland
  • Länderverzeichnis
  • Für 7 Tage
  • Wassertemperatur
  • Wetterkarte
  • Widgets
  • user-avatar
    Anmelden

    Stündliche Wetter Chikunova

    Heute, 17 Oktober, Donnerstag

    Zeit Temperatur Niederschläge Wind Luftdruck Luftfeuchtigkeit
    00:00 -2°C° 0 mm 6 m/S 751 mmHg 85%
    01:00 -2°C° 0 mm 6 m/S 751 mmHg 84%
    02:00 -1°C° 0 mm 5 m/S 752 mmHg 84%
    03:00 -2°C° 0 mm 5 m/S 753 mmHg 84%
    04:00 -2°C° 0 mm 4 m/S 753 mmHg 89%
    05:00 -2°C° 0 mm 4 m/S 753 mmHg 88%
    06:00 -2°C° 0 mm 4 m/S 754 mmHg 86%
    07:00 -2°C° 0 mm 5 m/S 754 mmHg 85%
    08:00 -1°C° 0 mm 5 m/S 754 mmHg 81%
    09:00 -1°C° 0 mm 5 m/S 754 mmHg 76%
    10:00 0°C° 0 mm 5 m/S 755 mmHg 71%
    11:00 0°C° 0 mm 5 m/S 755 mmHg 70%
    12:00 0°C° 0 mm 5 m/S 755 mmHg 68%
    13:00 +1°C° 0 mm 5 m/S 755 mmHg 67%
    14:00 0°C° 0 mm 4 m/S 755 mmHg 68%
    15:00 +1°C° 0 mm 3 m/S 755 mmHg 69%
    16:00 +1°C° 0 mm 3 m/S 756 mmHg 70%
    17:00 +1°C° 0 mm 2 m/S 756 mmHg 72%
    18:00 +1°C° 0 mm 2 m/S 755 mmHg 73%
    19:00 +1°C° 0 mm 2 m/S 755 mmHg 75%
    20:00 +1°C° 0 mm 2 m/S 755 mmHg 77%
    21:00 +1°C° 0 mm 2 m/S 755 mmHg 79%
    22:00 +1°C° 0 mm 2 m/S 755 mmHg 81%
    23:00 -1°C° 0.2 mm 2 m/S 754 mmHg 87%

    Morgen, 18 Oktober, Freitag

    Zeit Temperatur Niederschläge Wind Luftdruck Luftfeuchtigkeit
    00:00 -1°C° 0.2 mm 2 m/S 754 mmHg 92%
    01:00 -1°C° 0.2 mm 2 m/S 753 mmHg 97%
    02:00 -1°C° 0.2 mm 2 m/S 753 mmHg 97%
    03:00 -1°C° 0.2 mm 3 m/S 752 mmHg 97%
    04:00 -1°C° 0.2 mm 3 m/S 752 mmHg 97%
    05:00 0°C° 0.1 mm 3 m/S 751 mmHg 97%
    06:00 0°C° 0.1 mm 3 m/S 751 mmHg 97%
    07:00 0°C° 0.1 mm 3 m/S 750 mmHg 97%
    08:00 0°C° 0.3 mm 3 m/S 750 mmHg 97%
    09:00 -1°C° 0.3 mm 4 m/S 749 mmHg 97%
    10:00 -1°C° 0.3 mm 4 m/S 749 mmHg 97%
    11:00 -1°C° 0.8 mm 4 m/S 749 mmHg 97%
    12:00 -1°C° 0.8 mm 4 m/S 749 mmHg 97%
    13:00 -1°C° 0.8 mm 4 m/S 748 mmHg 97%
    14:00 -1°C° 0.2 mm 4 m/S 749 mmHg 97%
    15:00 -1°C° 0.2 mm 4 m/S 749 mmHg 97%
    16:00 -1°C° 0.2 mm 4 m/S 749 mmHg 97%
    17:00 -1°C° 0.1 mm 5 m/S 749 mmHg 97%
    18:00 -1°C° 0.1 mm 5 m/S 749 mmHg 96%
    19:00 -2°C° 0.1 mm 6 m/S 749 mmHg 96%
    20:00 -3°C° 0 mm 6 m/S 750 mmHg 93%
    21:00 -3°C° 0 mm 6 m/S 751 mmHg 90%
    22:00 -3°C° 0 mm 6 m/S 751 mmHg 88%
    23:00 -4°C° 0 mm 6 m/S 752 mmHg 87%

    übermorgen, 19 Oktober, Samstag

    Zeit Temperatur Niederschläge Wind Luftdruck Luftfeuchtigkeit
    00:00 -4°C° 0 mm 5 m/S 752 mmHg 86%
    01:00 -5°C° 0 mm 5 m/S 753 mmHg 85%
    02:00 -5°C° 0 mm 5 m/S 754 mmHg 85%
    03:00 -5°C° 0 mm 4 m/S 754 mmHg 85%
    04:00 -7°C° 0 mm 4 m/S 755 mmHg 85%
    05:00 -7°C° 0 mm 4 m/S 756 mmHg 85%
    06:00 -7°C° 0 mm 4 m/S 756 mmHg 85%
    07:00 -7°C° 0 mm 4 m/S 756 mmHg 85%
    08:00 -5°C° 0 mm 4 m/S 757 mmHg 80%
    09:00 -4°C° 0 mm 4 m/S 758 mmHg 76%
    10:00 -4°C° 0 mm 4 m/S 758 mmHg 72%
    11:00 -3°C° 0 mm 4 m/S 758 mmHg 70%
    12:00 -2°C° 0 mm 3 m/S 759 mmHg 68%
    13:00 -1°C° 0 mm 3 m/S 759 mmHg 67%
    14:00 -2°C° 0 mm 3 m/S 759 mmHg 69%
    15:00 -2°C° 0 mm 2 m/S 759 mmHg 72%
    16:00 -2°C° 0 mm 2 m/S 760 mmHg 74%
    17:00 -3°C° 0 mm 2 m/S 760 mmHg 76%
    18:00 -3°C° 0 mm 2 m/S 760 mmHg 79%
    19:00 -4°C° 0 mm 2 m/S 761 mmHg 81%
    20:00 -2°C° 0 mm 1 m/S 761 mmHg 81%
    21:00 -2°C° 0 mm 1 m/S 762 mmHg 81%
    22:00 -2°C° 0 mm 1 m/S 762 mmHg 81%
    23:00 -2°C° 0 mm 1 m/S 762 mmHg 81%

    20 Oktober, Sonntag

    Zeit Temperatur Niederschläge Wind Luftdruck Luftfeuchtigkeit
    00:00 -2°C° 0 mm 1 m/S 762 mmHg 81%
    01:00 -2°C° 0 mm 1 m/S 762 mmHg 80%
    02:00 -3°C° 0 mm 1 m/S 762 mmHg 81%
    03:00 -3°C° 0 mm 1 m/S 763 mmHg 81%
    04:00 -5°C° 0 mm 2 m/S 763 mmHg 82%
    05:00 -5°C° 0 mm 2 m/S 763 mmHg 82%
    06:00 -5°C° 0 mm 2 m/S 763 mmHg 82%
    07:00 -5°C° 0 mm 2 m/S 763 mmHg 83%
    08:00 -5°C° 0 mm 3 m/S 763 mmHg 77%
    09:00 -4°C° 0 mm 3 m/S 763 mmHg 70%
    10:00 -3°C° 0 mm 4 m/S 763 mmHg 64%
    11:00 -2°C° 0 mm 4 m/S 763 mmHg 62%
    12:00 -2°C° 0 mm 4 m/S 762 mmHg 59%
    13:00 -1°C° 0 mm 5 m/S 762 mmHg 57%
    14:00 -1°C° 0 mm 4 m/S 762 mmHg 60%
    15:00 -2°C° 0 mm 4 m/S 762 mmHg 63%
    16:00 -2°C° 0 mm 4 m/S 761 mmHg 66%
    17:00 -3°C° 0 mm 4 m/S 761 mmHg 67%
    18:00 -3°C° 0 mm 4 m/S 761 mmHg 68%
    19:00 -3°C° 0 mm 4 m/S 761 mmHg 69%
    20:00 -4°C° 0 mm 5 m/S 761 mmHg 70%
    21:00 -4°C° 0 mm 5 m/S 760 mmHg 70%
    22:00 -4°C° 0 mm 5 m/S 760 mmHg 71%
    23:00 -4°C° 0 mm 5 m/S 760 mmHg 72%

    21 Oktober, Montag

    Zeit Temperatur Niederschläge Wind Luftdruck Luftfeuchtigkeit
    00:00 -4°C° 0 mm 5 m/S 759 mmHg 73%
    01:00 -4°C° 0 mm 5 m/S 759 mmHg 74%
    02:00 -4°C° 0 mm 6 m/S 758 mmHg 75%
    03:00 -4°C° 0 mm 6 m/S 758 mmHg 76%
    04:00 -3°C° 0 mm 6 m/S 758 mmHg 77%
    05:00 -3°C° 0 mm 6 m/S 757 mmHg 78%
    06:00 -3°C° 0 mm 6 m/S 757 mmHg 79%
    07:00 -2°C° 0 mm 6 m/S 756 mmHg 79%
    08:00 -2°C° 0 mm 6 m/S 756 mmHg 79%
    09:00 -1°C° 0 mm 6 m/S 755 mmHg 79%
    10:00 +1°C° 0 mm 6 m/S 755 mmHg 79%
    11:00 +1°C° 1 mm 6 m/S 754 mmHg 83%
    12:00 0°C° 1 mm 7 m/S 754 mmHg 87%
    13:00 0°C° 1 mm 7 m/S 753 mmHg 90%
    14:00 +1°C° 0.6 mm 6 m/S 753 mmHg 91%
    15:00 +1°C° 0.6 mm 6 m/S 753 mmHg 92%
    16:00 +1°C° 0.6 mm 5 m/S 753 mmHg 92%
    17:00 +1°C° 0.7 mm 5 m/S 752 mmHg 93%
    18:00 +1°C° 0.7 mm 5 m/S 752 mmHg 94%
    19:00 +1°C° 0.7 mm 5 m/S 752 mmHg 95%
    20:00 +1°C° 0.2 mm 5 m/S 752 mmHg 94%
    21:00 +1°C° 0.2 mm 4 m/S 751 mmHg 94%
    22:00 +3°C° 0.2 mm 4 m/S 751 mmHg 93%
    23:00 +1°C° 0 mm 4 m/S 750 mmHg 94%

    22 Oktober, Dienstag

    Zeit Temperatur Niederschläge Wind Luftdruck Luftfeuchtigkeit
    00:00 +1°C° 0 mm 4 m/S 750 mmHg 94%
    01:00 +2°C° 0 mm 3 m/S 749 mmHg 95%
    02:00 +1°C° 1.1 mm 4 m/S 749 mmHg 95%
    03:00 +2°C° 1.1 mm 5 m/S 748 mmHg 95%
    04:00 +2°C° 1.1 mm 5 m/S 747 mmHg 95%
    05:00 +3°C° 1.1 mm 6 m/S 746 mmHg 95%
    06:00 +3°C° 1.1 mm 6 m/S 746 mmHg 94%
    07:00 +4°C° 1.1 mm 7 m/S 745 mmHg 93%
    08:00 +5°C° 0.5 mm 7 m/S 744 mmHg 90%
    09:00 +6°C° 0.5 mm 7 m/S 744 mmHg 87%
    10:00 +8°C° 0.5 mm 7 m/S 744 mmHg 84%
    11:00 +8°C° 0 mm 7 m/S 744 mmHg 84%
    12:00 +9°C° 0 mm 6 m/S 744 mmHg 84%
    13:00 +9°C° 0 mm 6 m/S 744 mmHg 84%
    14:00 +9°C° 0.1 mm 5 m/S 744 mmHg 84%
    15:00 +8°C° 0.1 mm 5 m/S 744 mmHg 85%
    16:00 +8°C° 0.1 mm 5 m/S 744 mmHg 86%
    17:00 +8°C° 0.1 mm 4 m/S 745 mmHg 87%
    18:00 +7°C° 0.1 mm 4 m/S 745 mmHg 89%
    19:00 +7°C° 0.1 mm 4 m/S 745 mmHg 90%
    20:00 +6°C° 0 mm 4 m/S 745 mmHg 91%
    21:00 +6°C° 0 mm 4 m/S 746 mmHg 91%
    22:00 +5°C° 0 mm 3 m/S 746 mmHg 91%
    23:00 +4°C° 0 mm 3 m/S 746 mmHg 91%
    Mehr zeigen